Location: Heidgraben
(53.7081°N, 9.6576°E)
Time: 23:04:27
(UTC+00:00)

Cosmos 2333 Rocket - Pass Details

Date: 28 October 2020
Orbit: 841 x 861 km, 70.8° (Epoch: 28 November)

Event Time Altitude Azimuth Distance (km) Brightness Sun altitude
Exits shadow 04:08:59 - 330° (NNW) 2,911 4.7 -18.9°
Reaches altitude 10° 04:10:25 10° 338° (NNW) 2,485 4.5 -18.7°
Maximum altitude 04:14:51 23° 30° (NNE) 1,750 4.2 -18.1°
Drops below altitude 10° 04:19:15 10° 81° (E) 2,469 5.9 -17.4°
Sets 04:22:14 0° 96° (E) 3,399 7.1 -17.0°
